EW5919 Weather Reports


time (UTC)temp
F
wind
direction
speed
knots
gust
knots
rain 1hr
in
rain 24hr
in
rain mn
in
humidity
%
barometer
mb
20260906113026 71 187 0.0 0.0 0.00 0.00 0.00 95 1010.3
20260906111525 71 187 0.0 0.0 0.00 0.00 0.00 95 1010.2
20260906110025 71 187 0.0 0.0 0.00 0.00 0.00 95 1010.0
20260906104538 71 187 0.0 0.0 0.00 0.00 0.00 95 1010.1
20260906103040 71 187 0.0 0.0 0.00 0.00 0.00 95 1010.1
20260906101522 71 187 0.0 0.0 0.00 0.00 0.00 95 1010.2
20260906100027 71 187 0.0 0.0 0.00 0.00 0.00 95 1010.0
20260906094522 71 187 0.0 0.0 0.00 0.00 0.00 95 1010.0
20260906093026 71 187 0.0 0.0 0.00 0.00 0.00 94 1009.9
20260906091523 72 187 0.0 0.0 0.00 0.00 0.00 94 1009.4
20260906090019 72 187 0.0 0.0 0.00 0.00 0.00 94 1009.4
20260906084516 72 187 0.0 0.0 0.00 0.00 0.00 94 1009.6
20260906083116 72 187 0.0 0.0 0.00 0.00 0.00 94 1009.5
20260906081516 72 187 0.0 0.0 0.00 0.00 0.00 94 1009.5
20260906080014 72 187 0.0 0.0 0.00 0.00 0.00 94 1009.6
20260906074513 72 187 0.0 0.0 0.00 0.00 0.00 94 1009.5
20260906073012 72 187 0.0 0.0 0.00 0.00 0.00 94 1009.7
20260906071512 73 187 0.0 0.0 0.00 0.00 0.00 94 1009.7
20260906070020 73 214 0.0 0.0 0.00 0.00 0.00 93 1009.4
20260906064508 73 262 0.0 0.0 0.00 0.00 0.00 92 1009.4
20260906063007 73 262 0.0 0.0 0.00 0.00 0.00 92 1009.6
20260906061509 73 262 0.0 0.0 0.00 0.00 0.00 91 1009.8
20260906060004 73 262 0.0 0.0 0.00 0.00 0.00 91 1009.7
20260906054501 74 262 0.0 0.0 0.00 0.00 0.00 91 1009.9
20260906053059 74 262 0.0 0.0 0.00 0.00 0.00 91 1010.0
20260906051558 74 262 0.0 0.0 0.00 0.00 0.00 90 1010.1
20260906050105 74 262 0.0 0.0 0.00 0.00 0.00 90 1010.1
20260906044554 74 262 0.0 0.0 0.00 0.00 0.00 89 1010.1
20260906043053 75 262 0.0 0.0 0.00 0.00 0.00 88 1010.1
20260906041552 75 262 0.0 0.0 0.00 0.00 0.00 88 1010.1
20260906040054 76 262 0.0 0.0 0.00 0.00 0.00 87 1010.1
20260906034552 76 262 0.0 0.0 0.00 0.00 0.00 86 1010.3
20260906033049 76 262 0.0 0.0 0.00 0.00 0.00 85 1010.5
20260906031606 77 262 0.0 0.0 0.00 0.00 0.00 84 1010.5
20260906030046 77 184 0.0 0.0 0.00 0.00 0.00 84 1010.7
20260906024557 77 130 0.0 0.0 0.00 0.00 0.00 83 1010.8
20260906023054 77 191 0.0 0.0 0.00 0.00 0.00 83 1011.1
20260906021647 77 194 0.0 3.5 0.00 0.00 0.00 84 1011.4
20260906020044 77 288 0.0 0.9 0.00 0.00 0.00 83 1011.1
20260906014545 78 265 0.0 0.0 0.00 0.00 0.00 83 1010.7
20260906013044 78 166 0.0 4.3 0.00 0.00 0.00 81 1010.2
20260906011543 79 165 0.0 0.9 0.00 0.00 0.00 79 1010.2
20260906010049 80 175 0.0 2.6 0.00 0.00 0.00 77 1010.3
20260906004544 82 159 0.0 0.0 0.00 0.00 0.00 76 1009.4
20260906003042 83 99 0.0 0.9 0.00 0.00 0.00 72 1008.9
20260906001540 84 163 0.0 0.0 0.00 0.00 0.00 69 1008.8
20260906000053 85 156 0.0 3.5 0.00 0.00 0.00 66 1009.0
20260905234548 87 174 0.0 2.6 0.00 0.00 0.00 64 1009.2
20260905233040 89 134 0.0 12.2 0.00 0.00 0.00 62 1009.1
20260905231539 91 191 0.0 3.5 0.00 0.00 0.00 64 1008.2
20260905230038 92 190 0.0 2.6 0.00 0.00 0.00 63 1008.4
20260905224537 93 154 0.0 6.1 0.00 0.00 0.00 62 1008.2
20260905223037 95 189 0.0 3.5 0.00 0.00 0.00 60 1008.2
20260905221536 97 208 0.0 1.7 0.00 0.00 0.00 57 1008.2
20260905220039 100 231 0.0 0.0 0.00 0.00 0.00 45 1008.0
20260905214535 100 178 0.0 0.0 0.00 0.00 0.00 45 1007.7
20260905213034 101 211 0.0 0.0 0.00 0.00 0.00 45 1007.8
20260905211556 100 246 0.0 0.0 0.00 0.00 0.00 44 1007.9
20260905210033 100 313 0.0 0.0 0.00 0.00 0.00 46 1008.1
20260905204529 101 5 0.0 0.0 0.00 0.00 0.00 45 1008.2
20260905203028 101 173 0.0 0.0 0.00 0.00 0.00 44 1008.5
20260905201532 98 265 0.0 0.0 0.00 0.00 0.00 46 1008.6
20260905200027 99 258 0.0 0.9 0.00 0.00 0.00 44 1009.0
20260905194522 100 10 0.0 1.7 0.00 0.00 0.00 44 1009.1
20260905193020 100 314 0.0 0.0 0.00 0.00 0.00 44 1009.3
20260905191519 102 355 0.0 5.2 0.00 0.00 0.00 43 1009.3
20260905190116 102 301 0.0 0.0 0.00 0.00 0.00 44 1009.7
20260905184514 101 203 0.0 0.0 0.00 0.00 0.00 44 1009.8
20260905183009 100 293 0.0 0.9 0.00 0.00 0.00 45 1010.1
20260905181507 99 5 0.0 0.0 0.00 0.00 0.00 47 1010.2
20260905180005 100 190 0.0 0.0 0.00 0.00 0.00 47 1010.2
20260905174503 99 355 0.0 1.7 0.00 0.00 0.00 48 1010.6
20260905173104 99 308 0.0 0.0 0.00 0.00 0.00 50 1010.8
20260905171559 99 320 0.0 0.9 0.00 0.00 0.00 50 1011.0
20260905170054 98 320 0.0 0.9 0.00 0.00 0.00 53 1011.1
20260905164551 97 303 0.0 0.9 0.00 0.00 0.00 53 1011.2
20260905163047 95 336 0.0 1.7 0.00 0.00 0.00 56 1011.5
20260905161542 93 18 0.0 4.3 0.00 0.00 0.00 61 1011.7
20260905160039 92 45 0.0 0.0 0.00 0.00 0.00 62 1011.8
20260905154537 91 334 0.0 0.0 0.00 0.00 0.00 65 1012.0
20260905153032 89 22 0.0 0.0 0.00 0.00 0.00 68 1011.9
20260905151528 87 336 0.0 0.0 0.00 0.00 0.00 72 1012.0
20260905150023 85 295 0.0 0.0 0.00 0.00 0.00 76 1012.0
20260905144519 83 250 0.0 0.0 0.00 0.00 0.00 82 1012.2
20260905143014 80 312 0.0 0.0 0.00 0.00 0.00 87 1012.2
20260905141522 78 5 0.0 0.0 0.00 0.00 0.00 92 1012.4
20260905140006 76 331 0.0 0.0 0.00 0.00 0.00 95 1012.4
20260905134507 75 24 0.0 0.0 0.00 0.00 0.00 96 1012.4
20260905133005 74 102 0.0 0.0 0.00 0.00 0.00 96 1012.4
20260905131502 74 107 0.0 0.0 0.00 0.00 0.00 96 1012.6
20260905130002 73 131 0.0 0.0 0.00 0.00 0.00 96 1012.7
20260905124701 73 131 0.0 0.0 0.00 0.00 0.00 96 1012.6
20260905123059 72 131 0.0 0.0 0.00 0.00 0.00 96 1012.7
20260905121559 72 131 0.0 0.0 0.00 0.00 0.00 96 1012.6
20260905120057 72 131 0.0 0.0 0.00 0.00 0.00 96 1012.6
20260905114554 71 131 0.0 0.0 0.00 0.00 0.00 96 1012.3